Location: Dittelbrunn
(50.0738°N, 10.2196°E)
Time: 22:29:12
(UTC+00:00)

Cosmos 1833 Rocket - Pass Details

Date: 18 September 2020
Orbit: 831 x 841 km, 71.0° (Epoch: 20 October)

Event Time Altitude Azimuth Distance (km) Brightness Sun altitude
Rises 21:43:30 0° 325° (NW) 3,408 6.9 -35.1°
Reaches altitude 10° 21:46:10 10° 316° (NW) 2,469 5.8 -35.3°
Enters shadow 21:49:27 27° 286° (WNW) 1,553 4.3 -35.5°
